Weather History for K1H2 - February, 2013

Change the Weather History Date:

Sunday, February 10, 2013

  Actual Average (KMTO) Record (KMTO)
Temperature  
Mean Temperature 44 °F 30 °F  
Max Temperature 53 °F 38 °F 68 °F (1976)
Min Temperature 36 °F 23 °F -16 °F (1982)
Degree Days  
Heating Degree Days 20 35  
Month to date heating degree days 360  
Since 1 July heating degree days 3636  
Cooling Degree Days 0 0  
Month to date cooling degree days 0  
Year to date cooling degree days 0  
Moisture  
Dew Point 41 °F    
Average Humidity 85    
Maximum Humidity 95    
Minimum Humidity 65    
Precipitation  
Precipitation 0.68 in 0.07 in 1.15 in (1981)
Month to date precipitation 0.68  
Year to date precipitation 2.89  
Sea Level Pressure  
Sea Level Pressure 29.82 in    
Wind  
Wind Speed 12 mph (SSE)    
Max Wind Speed 24 mph    
Max Gust Speed 33 mph    
Visibility 9 miles    
Events Rain , Thunderstorm    
T = Trace of Precipitation, MM = Missing Value Source: NWS Daily Summary

Daily Weather History Graph

Daily Weather History Graph

Search for Another Location

Airport or City:

Trip Planner

Search our weather history database for the weather conditions in past years. The results will help you decide how hot, cold, wet, or windy it might be!

Date:

Astronomy

Feb. 10, 2013 Rise Set
Actual Time 6:51 AM CST 5:26 PM CST
Civil Twilight 6:23 AM CST 5:53 PM CST
Nautical Twilight 5:52 AM CST 6:25 PM CST
Astronomical Twilight 5:21 AM CST 6:56 PM CST
Moon 6:41 AM CST (2/10) 6:15 PM CST (2/10)
Length of Visible Light 11h 30m
Length of Day
10h 34m
New Moon, 0% of the Moon is Illuminated
Feb 10
New Moon
Feb 17
First Quarter
Feb 25
Full
Mar 4
Last Quarter
Mar 11
New

Hourly Weather History & Observations

Time (CST) Temp. Windchill Dew Point Humidity Pressure Visibility Wind Dir Wind Speed Gust Speed Precip Events Conditions
12:15 AM 39.2 °F 33.6 °F 29.8 °F 69% 30.09 in 10.0 mi ESE 8.1 mph - N/A Rain Light Rain
12:35 AM 38.5 °F 32.7 °F 31.1 °F 75% 30.09 in - SE 8.1 mph - N/A   Overcast
12:55 AM 38.5 °F 32.7 °F 31.5 °F 76% 30.10 in - SSE 8.1 mph - N/A   Overcast
1:15 AM 37.8 °F 31.8 °F 32.2 °F 80% 30.09 in - SE 8.1 mph - 0.03 in   Overcast
1:35 AM 37.4 °F 31.4 °F 32.9 °F 84% 30.08 in - SE 8.1 mph - 0.06 in   Overcast
1:55 AM 37.4 °F 30.8 °F 34.0 °F 87% 30.07 in - SE 9.2 mph - 0.11 in   Unknown
2:15 AM 36.9 °F 31.4 °F 34.7 °F 92% 30.06 in - ESE 6.9 mph - 0.05 in   Overcast
2:35 AM 36.7 °F 29.9 °F 34.9 °F 93% 30.06 in - ESE 9.2 mph - 0.09 in   Overcast
2:55 AM 36.9 °F 29.6 °F 35.4 °F 95% 30.03 in - ESE 10.4 mph - 0.10 in   Overcast
3:15 AM 37.4 °F 30.3 °F 35.6 °F 93% 30.00 in - ESE 10.4 mph - N/A   Unknown
3:35 AM 37.6 °F 31.0 °F 35.6 °F 93% 30.00 in - ESE 9.2 mph - N/A   Unknown
3:55 AM 37.8 °F 29.8 °F 34.0 °F 86% 29.99 in 10.0 mi ESE 12.7 mph - N/A   Overcast
4:15 AM 37.8 °F 29.8 °F 33.3 °F 84% 29.99 in 10.0 mi SE 12.7 mph - N/A   Overcast
4:35 AM 37.8 °F 31.8 °F 32.9 °F 83% 30.00 in 10.0 mi SE 8.1 mph 16.1 mph N/A   Overcast
4:55 AM 37.9 °F 31.5 °F 33.4 °F 84% 29.98 in 10.0 mi ESE 9.2 mph - N/A   Overcast
5:15 AM 38.1 °F 31.2 °F 33.3 °F 83% 29.97 in 10.0 mi ESE 10.4 mph - N/A Rain Light Rain
5:35 AM 38.7 °F 31.8 °F 32.9 °F 80% 29.96 in 10.0 mi ESE 10.4 mph - N/A   Overcast
5:55 AM 38.7 °F 31.4 °F 33.3 °F 81% 29.95 in 10.0 mi SE 11.5 mph - N/A Rain Light Rain
6:15 AM 39.4 °F 32.7 °F 33.8 °F 80% 29.96 in 10.0 mi SE 10.4 mph - N/A   Overcast
6:35 AM 39.6 °F 32.1 °F 34.5 °F 82% 29.93 in 10.0 mi ESE 12.7 mph - 0.01 in Rain Light Rain
6:55 AM 40.3 °F 33.4 °F 35.1 °F 82% 29.94 in 10.0 mi SE 11.5 mph - 0.01 in   Overcast
7:15 AM 41.0 °F 33.9 °F 35.4 °F 81% 29.94 in 10.0 mi SE 12.7 mph 19.6 mph N/A   Overcast
7:35 AM 41.4 °F 34.7 °F 35.8 °F 81% 29.93 in 10.0 mi SE 11.5 mph - N/A   Overcast
7:55 AM 42.3 °F 33.8 °F 36.5 °F 80% 29.91 in 10.0 mi SE 18.4 mph - N/A   Overcast
8:15 AM 43.2 °F 35.6 °F 37.4 °F 80% 29.90 in 10.0 mi SE 16.1 mph 24.2 mph N/A   Overcast
8:35 AM 43.7 °F 37.3 °F 37.6 °F 79% 29.90 in 10.0 mi SSE 12.7 mph - N/A   Overcast
8:55 AM 43.7 °F 36.6 °F 38.5 °F 82% 29.88 in 10.0 mi SE 15.0 mph - N/A Rain Rain
9:15 AM 44.4 °F 37.9 °F 38.8 °F 81% 29.87 in 10.0 mi SE 13.8 mph 19.6 mph 0.01 in Rain Light Rain
9:35 AM 45.5 °F 38.9 °F 39.0 °F 78% 29.85 in 10.0 mi SE 15.0 mph 19.6 mph 0.01 in Rain , Thunderstorm Light Thunderstorms and Rain
9:55 AM 46.0 °F 40.6 °F 39.2 °F 77% 29.86 in 10.0 mi SSE 11.5 mph 20.7 mph 0.01 in Rain , Thunderstorm Light Thunderstorms and Rain
10:15 AM 46.4 °F 41.1 °F 39.4 °F 77% 29.85 in 10.0 mi SE 11.5 mph - 0.01 in Rain Rain
10:35 AM 46.9 °F - 39.4 °F 75% 29.87 in 10.0 mi SSE 12.7 mph 19.6 mph 0.02 in Rain , Thunderstorm Rain
10:55 AM 46.0 °F 41.0 °F 40.6 °F 81% 29.88 in 2.0 mi South 10.4 mph 18.4 mph 0.13 in Rain Light Rain
11:15 AM 45.0 °F 38.9 °F 41.9 °F 89% 29.86 in 1.5 mi SSE 12.7 mph 17.3 mph 0.14 in   Overcast
11:35 AM 44.8 °F 37.1 °F 42.3 °F 91% 29.82 in 2.0 mi SE 18.4 mph 23.0 mph 0.23 in   Overcast
11:55 AM 44.6 °F 37.2 °F 42.4 °F 92% 29.79 in 3.0 mi SE 17.3 mph 24.2 mph 0.28 in   Overcast
12:15 PM 44.8 °F 37.4 °F 42.8 °F 93% 29.77 in 5.0 mi SE 17.3 mph 26.5 mph 0.03 in Rain Light Rain
12:35 PM 45.5 °F 37.8 °F 43.3 °F 92% 29.77 in - SSE 19.6 mph 26.5 mph 0.03 in Rain Light Rain
12:55 PM 45.9 °F 39.4 °F 43.7 °F 92% 29.75 in 10.0 mi SE 15.0 mph 28.8 mph 0.03 in   Overcast
1:15 PM 46.4 °F 39.8 °F 43.7 °F 90% 29.72 in 10.0 mi SE 16.1 mph 23.0 mph N/A   Overcast
1:35 PM 46.8 °F - 43.9 °F 90% 29.71 in 10.0 mi SSE 17.3 mph 23.0 mph 0.01 in   Overcast
1:55 PM 47.7 °F - 44.4 °F 89% 29.70 in 10.0 mi SSE 19.6 mph 28.8 mph 0.01 in   Overcast
2:15 PM 48.2 °F - 44.6 °F 87% 29.68 in 10.0 mi SSE 24.2 mph 33.4 mph N/A   Overcast
2:35 PM 48.2 °F - 45.0 °F 89% 29.65 in 10.0 mi SSE 21.9 mph 32.2 mph N/A   Overcast
2:55 PM 49.1 °F - 45.5 °F 87% 29.64 in 10.0 mi SSE 18.4 mph 27.6 mph N/A   Overcast
3:15 PM 49.3 °F - 46.0 °F 89% 29.65 in 10.0 mi SSE 17.3 mph 25.3 mph N/A   Overcast
3:35 PM 50.2 °F - 46.6 °F 87% 29.66 in 10.0 mi South 13.8 mph 25.3 mph N/A   Overcast
3:55 PM 50.2 °F - 46.8 °F 88% 29.67 in 10.0 mi South 10.4 mph 17.3 mph N/A   Overcast
4:15 PM 50.9 °F - 47.3 °F 87% 29.67 in 10.0 mi South 12.7 mph 18.4 mph N/A   Overcast
4:35 PM 51.6 °F - 47.8 °F 87% 29.68 in 10.0 mi South 12.7 mph 21.9 mph N/A   Overcast
4:55 PM 51.4 °F - 48.6 °F 90% 29.67 in 2.5 mi South 15.0 mph 20.7 mph N/A Rain Rain
5:15 PM 51.3 °F - 49.1 °F 92% 29.68 in 2.5 mi SSE 13.8 mph 26.5 mph N/A Rain Light Rain
5:35 PM 51.3 °F - 49.3 °F 93% 29.68 in 7.0 mi South 11.5 mph 20.7 mph N/A   Overcast
5:55 PM 51.8 °F - 49.5 °F 92% 29.68 in 10.0 mi South 11.5 mph 21.9 mph N/A   Overcast
6:15 PM 51.8 °F - 49.6 °F 92% 29.68 in 10.0 mi South 13.8 mph 21.9 mph N/A   Overcast
6:35 PM 52.2 °F - 49.8 °F 92% 29.68 in 10.0 mi South 10.4 mph 20.7 mph N/A   Overcast
6:55 PM 52.2 °F - 50.0 °F 92% 29.69 in 10.0 mi South 10.4 mph - N/A   Overcast
7:15 PM 52.3 °F - 50.0 °F 92% 29.69 in 10.0 mi South 9.2 mph - N/A   Overcast
7:35 PM 52.3 °F - 50.0 °F 92% 29.69 in 10.0 mi South 9.2 mph - N/A   Overcast
7:55 PM 52.7 °F - 50.0 °F 91% 29.69 in 10.0 mi South 10.4 mph - N/A   Overcast
8:15 PM 52.9 °F - 50.0 °F 90% 29.69 in 10.0 mi South 10.4 mph - N/A   Overcast
8:35 PM 53.2 °F - 50.2 °F 89% 29.69 in 10.0 mi South 13.8 mph 19.6 mph N/A   Overcast
8:55 PM 53.1 °F - 50.0 °F 89% 29.69 in 10.0 mi South 11.5 mph - N/A   Overcast
9:15 PM 53.1 °F - 50.0 °F 89% 29.69 in 10.0 mi SSW 11.5 mph - N/A   Overcast
9:35 PM 53.2 °F - 49.8 °F 88% 29.70 in 10.0 mi SSW 12.7 mph 19.6 mph N/A   Scattered Clouds
9:55 PM 52.9 °F - 49.8 °F 89% 29.70 in 10.0 mi SSW 11.5 mph 19.6 mph N/A   Scattered Clouds
10:15 PM 52.7 °F - 49.5 °F 89% 29.70 in 10.0 mi SSW 15.0 mph 23.0 mph N/A   Scattered Clouds
10:35 PM 52.3 °F - 47.8 °F 85% 29.70 in 10.0 mi SSW 15.0 mph 20.7 mph N/A   Clear
10:55 PM 52.0 °F - 45.7 °F 79% 29.70 in 10.0 mi SW 18.4 mph 24.2 mph N/A   Clear
11:15 PM 52.2 °F - 41.9 °F 68% 29.71 in 10.0 mi SW 16.1 mph 23.0 mph N/A   Clear
11:35 PM 51.3 °F - 41.2 °F 68% 29.71 in 10.0 mi SW 15.0 mph 24.2 mph N/A   Clear
11:55 PM 50.2 °F - 38.8 °F 65% 29.72 in 10.0 mi SW 17.3 mph - N/A   Clear